Previsão horária em Ablis

Hoje, 11 Abril, Domingo

Tempo Temperatura Precipitação Vento Pressão Humidade
00:00 +5°C° 0 mm 3 m/s 743 mmHg 94%
01:00 +5°C° 0.1 mm 3 m/s 743 mmHg 94%
02:00 +5°C° 0.1 mm 3 m/s 743 mmHg 94%
03:00 +5°C° 0.1 mm 4 m/s 743 mmHg 94%
04:00 +4°C° 0.2 mm 4 m/s 743 mmHg 95%
05:00 +4°C° 0.2 mm 4 m/s 743 mmHg 95%
06:00 +2°C° 0.2 mm 5 m/s 744 mmHg 95%
07:00 +2°C° 0.3 mm 5 m/s 744 mmHg 95%
08:00 +2°C° 0.3 mm 5 m/s 745 mmHg 94%
09:00 +1°C° 0.3 mm 5 m/s 746 mmHg 93%
10:00 +2°C° 0 mm 5 m/s 746 mmHg 88%
11:00 +2°C° 0 mm 5 m/s 747 mmHg 84%
12:00 +3°C° 0 mm 5 m/s 747 mmHg 79%
13:00 +3°C° 0 mm 5 m/s 748 mmHg 77%
14:00 +3°C° 0 mm 5 m/s 748 mmHg 75%
15:00 +4°C° 0 mm 4 m/s 749 mmHg 73%
16:00 +4°C° 0 mm 4 m/s 749 mmHg 72%
17:00 +5°C° 0 mm 4 m/s 750 mmHg 71%
18:00 +5°C° 0 mm 3 m/s 750 mmHg 70%
19:00 +3°C° 0 mm 3 m/s 751 mmHg 73%
20:00 +2°C° 0 mm 3 m/s 752 mmHg 76%
21:00 +1°C° 0 mm 3 m/s 753 mmHg 78%
22:00 0°C° 0 mm 3 m/s 753 mmHg 80%
23:00 0°C° 0 mm 3 m/s 754 mmHg 81%

Amanhã, 12 Abril, Segunda-feira

Tempo Temperatura Precipitação Vento Pressão Humidade
00:00 -1°C° 0 mm 3 m/s 754 mmHg 83%
01:00 -1°C° 0 mm 2 m/s 755 mmHg 83%
02:00 -1°C° 0 mm 2 m/s 755 mmHg 84%
03:00 -1°C° 0 mm 2 m/s 755 mmHg 85%
04:00 -1°C° 0 mm 2 m/s 756 mmHg 85%
05:00 -1°C° 0 mm 2 m/s 756 mmHg 85%
06:00 -1°C° 0 mm 2 m/s 756 mmHg 85%
07:00 +2°C° 0 mm 3 m/s 757 mmHg 77%
08:00 +4°C° 0 mm 3 m/s 757 mmHg 68%
09:00 +7°C° 0 mm 3 m/s 757 mmHg 59%
10:00 +8°C° 0 mm 3 m/s 757 mmHg 54%
11:00 +8°C° 0 mm 4 m/s 757 mmHg 49%
12:00 +10°C° 0 mm 4 m/s 757 mmHg 44%
13:00 +10°C° 0 mm 4 m/s 757 mmHg 46%
14:00 +9°C° 0 mm 5 m/s 757 mmHg 48%
15:00 +9°C° 0 mm 5 m/s 757 mmHg 50%
16:00 +8°C° 0 mm 5 m/s 757 mmHg 59%
17:00 +6°C° 0 mm 4 m/s 757 mmHg 67%
18:00 +5°C° 0 mm 4 m/s 757 mmHg 76%
19:00 +5°C° 0.1 mm 3 m/s 758 mmHg 81%
20:00 +4°C° 0.1 mm 3 m/s 758 mmHg 85%
21:00 +5°C° 0.1 mm 2 m/s 758 mmHg 89%
22:00 +4°C° 0 mm 2 m/s 758 mmHg 90%
23:00 +3°C° 0 mm 2 m/s 758 mmHg 91%

Depois de amanhã, 13 Abril, Terça-feira

Tempo Temperatura Precipitação Vento Pressão Humidade
00:00 +1°C° 0 mm 3 m/s 759 mmHg 92%
01:00 +1°C° 0 mm 3 m/s 759 mmHg 92%
02:00 0°C° 0 mm 3 m/s 759 mmHg 92%
03:00 0°C° 0 mm 3 m/s 759 mmHg 92%
04:00 0°C° 0 mm 3 m/s 759 mmHg 91%
05:00 0°C° 0 mm 3 m/s 760 mmHg 89%
06:00 0°C° 0 mm 3 m/s 760 mmHg 88%
07:00 +1°C° 0 mm 3 m/s 760 mmHg 77%
08:00 +3°C° 0 mm 4 m/s 760 mmHg 66%
09:00 +5°C° 0 mm 4 m/s 761 mmHg 55%
10:00 +6°C° 0 mm 4 m/s 761 mmHg 49%
11:00 +7°C° 0 mm 4 m/s 760 mmHg 43%
12:00 +9°C° 0 mm 3 m/s 760 mmHg 37%
13:00 +9°C° 0 mm 3 m/s 760 mmHg 36%
14:00 +9°C° 0 mm 3 m/s 760 mmHg 35%
15:00 +10°C° 0 mm 3 m/s 759 mmHg 34%
16:00 +9°C° 0 mm 3 m/s 759 mmHg 41%
17:00 +7°C° 0 mm 3 m/s 759 mmHg 49%
18:00 +6°C° 0 mm 2 m/s 759 mmHg 56%
19:00 +5°C° 0 mm 2 m/s 759 mmHg 56%
20:00 +4°C° 0 mm 2 m/s 760 mmHg 57%
21:00 +3°C° 0 mm 2 m/s 760 mmHg 58%
22:00 +3°C° 0 mm 2 m/s 760 mmHg 61%
23:00 +2°C° 0 mm 2 m/s 760 mmHg 63%

14 Abril, Quarta-feira

Tempo Temperatura Precipitação Vento Pressão Humidade
00:00 +2°C° 0 mm 2 m/s 760 mmHg 66%
01:00 +1°C° 0 mm 2 m/s 760 mmHg 69%
02:00 +1°C° 0 mm 2 m/s 759 mmHg 72%
03:00 +1°C° 0 mm 2 m/s 759 mmHg 75%
04:00 +1°C° 0 mm 2 m/s 759 mmHg 75%
05:00 +1°C° 0 mm 2 m/s 759 mmHg 75%
06:00 +1°C° 0 mm 2 m/s 759 mmHg 75%
07:00 +3°C° 0 mm 2 m/s 759 mmHg 68%
08:00 +5°C° 0 mm 2 m/s 759 mmHg 61%
09:00 +7°C° 0 mm 2 m/s 759 mmHg 54%
10:00 +8°C° 0 mm 2 m/s 759 mmHg 51%
11:00 +9°C° 0 mm 2 m/s 759 mmHg 48%
12:00 +10°C° 0 mm 3 m/s 759 mmHg 45%
13:00 +10°C° 0 mm 3 m/s 758 mmHg 48%
14:00 +10°C° 0 mm 3 m/s 758 mmHg 50%
15:00 +8°C° 0 mm 4 m/s 758 mmHg 52%
16:00 +9°C° 0.1 mm 3 m/s 757 mmHg 58%
17:00 +8°C° 0.1 mm 3 m/s 757 mmHg 63%
18:00 +7°C° 0.1 mm 3 m/s 757 mmHg 69%
19:00 +5°C° 0 mm 3 m/s 758 mmHg 72%
20:00 +4°C° 0 mm 3 m/s 758 mmHg 76%
21:00 +3°C° 0 mm 3 m/s 758 mmHg 79%
22:00 +2°C° 0 mm 3 m/s 758 mmHg 80%
23:00 +2°C° 0 mm 3 m/s 758 mmHg 81%

15 Abril, Quinta-feira

Tempo Temperatura Precipitação Vento Pressão Humidade
00:00 +1°C° 0 mm 3 m/s 758 mmHg 82%
01:00 +1°C° 0 mm 3 m/s 758 mmHg 84%
02:00 0°C° 0 mm 3 m/s 758 mmHg 85%
03:00 -1°C° 0 mm 3 m/s 758 mmHg 86%
04:00 0°C° 0 mm 3 m/s 758 mmHg 87%
05:00 0°C° 0 mm 3 m/s 758 mmHg 87%
06:00 0°C° 0 mm 3 m/s 758 mmHg 88%
07:00 +1°C° 0 mm 4 m/s 759 mmHg 78%
08:00 +4°C° 0 mm 4 m/s 759 mmHg 68%
09:00 +6°C° 0 mm 5 m/s 759 mmHg 58%
10:00 +7°C° 0 mm 5 m/s 759 mmHg 53%
11:00 +8°C° 0 mm 5 m/s 758 mmHg 48%
12:00 +9°C° 0 mm 5 m/s 758 mmHg 43%
13:00 +9°C° 0 mm 5 m/s 758 mmHg 45%
14:00 +9°C° 0 mm 6 m/s 758 mmHg 46%
15:00 +9°C° 0 mm 6 m/s 757 mmHg 47%
16:00 +8°C° 0.1 mm 6 m/s 757 mmHg 52%
17:00 +7°C° 0.1 mm 5 m/s 757 mmHg 56%
18:00 +6°C° 0.1 mm 5 m/s 757 mmHg 61%
19:00 +5°C° 0 mm 5 m/s 757 mmHg 62%
20:00 +3°C° 0 mm 5 m/s 758 mmHg 63%
21:00 +3°C° 0 mm 4 m/s 758 mmHg 65%
22:00 +3°C° 0 mm 4 m/s 758 mmHg 67%
23:00 +1°C° 0 mm 4 m/s 758 mmHg 70%

16 Abril, Sexta-feira

Tempo Temperatura Precipitação Vento Pressão Humidade
00:00 0°C° 0 mm 4 m/s 758 mmHg 72%
01:00 0°C° 0 mm 4 m/s 757 mmHg 75%
02:00 0°C° 0 mm 4 m/s 757 mmHg 77%
03:00 0°C° 0 mm 3 m/s 757 mmHg 80%
04:00 -1°C° 0 mm 4 m/s 757 mmHg 79%
05:00 -1°C° 0 mm 4 m/s 757 mmHg 78%
06:00 -1°C° 0 mm 4 m/s 757 mmHg 78%
07:00 +1°C° 0 mm 5 m/s 757 mmHg 72%
08:00 +3°C° 0 mm 6 m/s 756 mmHg 65%
09:00 +4°C° 0 mm 6 m/s 756 mmHg 59%
10:00 +5°C° 0 mm 6 m/s 756 mmHg 57%
11:00 +5°C° 0 mm 6 m/s 756 mmHg 55%
12:00 +7°C° 0 mm 6 m/s 755 mmHg 53%
13:00 +7°C° 0 mm 6 m/s 755 mmHg 55%
14:00 +7°C° 0 mm 6 m/s 755 mmHg 57%
15:00 +7°C° 0 mm 6 m/s 754 mmHg 59%
16:00 +7°C° 0 mm 5 m/s 754 mmHg 62%
17:00 +6°C° 0 mm 5 m/s 754 mmHg 64%
18:00 +6°C° 0 mm 5 m/s 754 mmHg 66%
19:00 +6°C° 0 mm 5 m/s 754 mmHg 68%
20:00 +5°C° 0 mm 5 m/s 754 mmHg 70%
21:00 +5°C° 0 mm 5 m/s 754 mmHg 72%
22:00 +3°C° 0 mm 5 m/s 754 mmHg 76%
23:00 +4°C° 0 mm 4 m/s 754 mmHg 80%
Mostrar mais